Regional Weather Roundup
Issued by NWS

Home | Current Version | Previous Version | Text Only | Print | Product List | Glossary On
Versions: 1 2 3 4 5 6 7 8 9 10 11 12 13 14 15 16 17 18 19 20 21 22 23 24 25 26 27 28 29 30 31 32 33 34 35 36 37 38 39 40 41 42 43 44 45 46 47 48 49 50
000
ASUS43 KOAX 301402
RWRNE

WEATHER ROUNDUP FOR NEBRASKA
NATIONAL WEATHER SERVICE OMAHA NE
900 AM CDT MON MAR 30 2015

NOTES: SATELLITE DATA IS BEING USED TO AUGMENT CLOUD COVER ABOVE
       12000 FEET.
       "FAIR" INDICATES FEW OR NO CLOUDS BELOW 12,000 FEET WITH NO
       SIGNIFICANT WEATHER AND/OR OBSTRUCTIONS TO VISIBILITY.

  * THESE STATIONS DO NOT REPORT WEATHER SUCH AS RAIN...SNOW OR FOG.

NEZ001>004-019>022-054>056-301500-
NEBRASKA PANHANDLE

CITY           SKY/WX    TMP DP  RH WIND       PRES   REMARKS
SCOTTSBLUFF    SUNNY     39  26  59 W10       30.10R WCI  32
ALLIANCE       SUNNY     37  27  67 W7        30.07R WCI  32
CHADRON        SUNNY     44  29  55 SW6       30.06R
KIMBALL        SUNNY     47  19  32 W14G21    30.11R
SIDNEY         SUNNY     48  21  34 NW17      30.09R
$$

NEZ057>060-069>072-079>082-301500-
SOUTHWEST NEBRASKA

CITY           SKY/WX    TMP DP  RH WIND       PRES   REMARKS
NORTH PLATTE   SUNNY     45  24  43 S9        30.05F
IMPERIAL         N/A     41  25  53 SW3       30.08S
MCCOOK         SUNNY     48  23  37 SW8       30.10S
$$

NEZ005>010-023>029-035>040-094-301500-
NORTH CENTRAL NEBRASKA

CITY           SKY/WX    TMP DP  RH WIND       PRES   REMARKS
VALENTINE      SUNNY     46  23  40 W14       30.00S
AINSWORTH      SUNNY     49  23  36 SW12      30.00S
BROKEN BOW     SUNNY     51  19  28 SW13      30.05S
O`NEILL        SUNNY     52  21  29 SW15G23   29.99F
ORD            SUNNY     48  16  27 SW9       30.04F
$$

NEZ041-046>049-061>064-073>077-083>087-301500-
SOUTH CENTRAL NEBRASKA

CITY           SKY/WX    TMP DP  RH WIND       PRES   REMARKS
GRAND ISLAND   SUNNY     50  22  33 SW18      30.09F
HASTINGS       SUNNY     48  23  37 SW14G21   30.09F
HEBRON         SUNNY     47  26  43 SW12G20   30.13S
KEARNEY *      SUNNY     46  19  34 SW15      30.10S
YORK           SUNNY     48  27  43 SW15      30.10S
$$

NEZ011>018-030>034-042>045-301500-
NORTHEAST NEBRASKA

CITY           SKY/WX    TMP DP  RH WIND       PRES   REMARKS
NORFOLK        SUNNY     50  22  33 SW16      30.02F
ALBION         SUNNY     48  18  30 SW13      30.05F
BLAIR          SUNNY     48  28  45 SW12      30.08S
COLUMBUS *     SUNNY     46  27  46 SW9       30.09F
FREMONT        SUNNY     49  28  44 SW6       30.08F
TEKAMAH        SUNNY     44  26  49 S5        30.08F
$$

NEZ050>053-065>068-078-088>093-301500-
SOUTHEAST NEBRASKA

CITY           SKY/WX    TMP DP  RH WIND       PRES   REMARKS
LINCOLN        SUNNY     48  29  47 SW9       30.12F
OMAHA EPPLEY   MOSUNNY   45  29  53 S8        30.10F
FALLS CITY     SUNNY     43  34  70 CALM      30.13F
PLATTSMOUTH    SUNNY     48  25  40 S10       30.10F
$$

NEZ044-045-051>053-067-301500-
OMAHA AREA

CITY           SKY/WX    TMP DP  RH WIND       PRES   REMARKS
OMAHA EPPLEY   MOSUNNY   45  29  53 S8        30.10F
BLAIR          SUNNY     48  28  45 SW12      30.08S
FREMONT        SUNNY     49  28  44 SW6       30.08F
PLATTSMOUTH    SUNNY     48  25  40 S10       30.10F
$$



USA.gov is the U.S. government's official web portal to all federal, state and local government web resources and services.